Wind_Speed
81 80 78 78 78 78 78 78 78 78 78 77 77 78 78 78 77 76 77 77 77 76 76 75 74 73 73 73 72 72 71 71 71 70 70 70 69 69 69 68 68 68 68 68 68 68 67 66 65 65 64 64 64 64 64 62 60 60 60 57 56 53 51 50 49 47 44 42 39 38 36 33 31 28 26 24 24 23 21 20 19 20 20 20 20
81 80 80 80 78 79 79 80 81 80 79 79 79 78 77 78 77 77 77 76 75 75 74 74 73 73 72 72 72 72 71 71 72 72 72 71 70 69 69 69 69 69 69 69 69 68 67 65 64 65 65 64 64 64 64 62 61 60 58 56 54 52 50 49 47 44 41 39 38 36 34 31 29 27 25 24 23 22 21 20 20 20 20 20 21
83 82 81 79 78 80 80 81 81 80 79 79 78 76 77 77 76 76 75 75 75 74 74 74 74 73 73 73 73 73 73 73 73 74 73 72 71 70 70 70 70 70 70 69 69 66 63 63 65 65 65 64 64 65 64 62 61 59 57 55 53 50 49 48 45 41 39 38 36 34 32 29 28 26 25 23 23 22 20 20 20 20 21 21 22
84 82 80 80 81 81 80 79 78 78 78 78 77 77 77 77 76 76 75 76 76 76 76 75 74 74 74 74 74 74 74 74 74 74 73 73 72 71 71 70 70 70 70 67 65 64 63 64 66 66 65 64 65 65 63 62 60 58 56 53 51 49 48 46 42 39 37 36 34 32 30 28 26 26 25 23 23 22 20 20 20 21 21 21 22
83 81 82 83 82 80 79 79 80 80 79 78 78 77 77 78 78 77 77 77 78 77 76 75 75 75 75 74 74 74 74 75 75 75 74 73 73 72 72 71 71 69 67 65 63 64 65 66 67 66 65 64 65 64 62 60 58 56 53 51 49 47 46 43 39 37 36 34 32 30 29 26 25 25 25 23 22 21 20 20 21 21 21 22 22
82 81 81 79 79 80 80 81 82 81 79 79 79 79 79 79 79 79 79 79 78 77 76 75 76 75 75 75 74 74 75 75 75 75 74 74 74 73 72 71 70 66 65 66 65 66 67 67 67 65 65 65 64 62 60 59 56 53 51 49 47 46 44 40 37 36 34 32 30 29 27 26 24 24 24 23 22 21 20 20 21 22 21 22 23
81 80 80 79 80 81 81 81 81 81 80 81 81 80 80 80 79 79 79 78 77 76 76 76 76 75 75 74 74 75 75 76 75 75 75 75 74 73 72 70 69 66 66 67 66 68 68 67 66 65 65 64 62 60 58 56 54 51 49 48 46 44 41 37 36 34 32 30 29 27 26 25 24 24 24 23 21 21 20 21 21 22 22 22 23
80 80 81 79 80 81 81 82 82 82 82 82 81 80 80 79 79 78 78 77 77 77 77 76 75 75 74 75 75 75 76 75 75 75 75 74 73 72 71 68 68 68 67 67 68 68 68 66 65 66 64 62 60 58 56 54 51 48 47 46 43 41 38 36 35 32 30 29 28 26 26 25 24 23 23 22 21 21 21 22 22 23 22 22 23
83 83 82 80 81 82 83 83 83 84 84 83 81 80 80 80 80 80 79 79 79 78 77 76 75 75 75 76 76 76 75 75 74 75 74 73 72 71 70 68 67 67 67 68 68 68 67 66 65 64 62 60 58 56 54 51 48 46 44 42 41 39 37 35 33 30 29 28 27 26 25 25 24 23 22 21 20 20 22 23 24 24 23 23 24
83 82 83 83 84 83 85 85 85 86 85 83 82 81 82 82 81 80 80 79 79 77 76 75 75 75 75 75 75 75 75 75 75 75 74 73 72 71 70 69 67 67 68 69 68 67 66 65 64 62 60 58 56 54 51 48 45 43 41 39 39 38 36 33 31 29 29 29 27 25 24 24 24 23 22 21 20 21 23 25 27 26 24 23 24
84 84 85 85 85 85 86 86 85 84 84 84 84 83 82 80 79 79 79 78 77 76 76 75 75 74 75 75 75 75 75 75 75 74 73 72 72 71 70 68 68 68 68 67 66 66 65 64 63 60 58 56 54 51 47 45 42 40 39 39 38 37 35 32 30 29 29 28 27 26 25 24 24 24 23 21 20 22 24 26 29 29 27 24 24
89 90 90 88 88 87 87 86 85 84 85 85 83 82 80 78 78 79 78 78 77 76 76 75 75 74 74 75 75 76 75 75 74 73 73 72 71 70 68 68 68 67 65 64 63 63 63 63 61 58 55 53 50 47 44 42 39 38 39 39 39 36 34 32 30 29 28 26 26 26 25 24 24 25 25 25 23 24 25 27 29 30 29 26 24
91 91 90 89 88 87 87 86 86 85 82 81 80 79 78 78 79 79 78 77 76 76 75 74 74 74 74 75 75 75 75 74 74 73 73 72 70 68 68 67 65 63 62 62 62 62 62 60 58 55 51 49 47 44 41 38 37 39 41 40 38 35 34 33 30 30 28 26 24 24 25 25 25 26 28 28 27 26 26 27 28 30 30 28 25
92 91 90 88 85 85 85 84 84 81 78 77 77 77 77 78 79 79 77 76 76 75 74 73 73 74 74 74 74 75 75 74 73 73 71 69 68 67 66 63 61 61 61 61 61 60 58 56 53 50 47 46 44 41 38 37 39 41 40 39 37 35 34 33 31 31 28 25 24 23 25 25 25 27 28 29 28 28 28 27 28 29 31 31 28
84 86 86 84 81 80 81 79 78 77 75 74 75 77 77 77 77 76 75 74 73 73 73 73 73 74 75 75 76 76 75 72 71 70 68 66 65 65 63 61 61 61 61 59 57 54 52 50 47 45 44 42 40 39 37 38 40 40 38 37 35 35 34 33 32 31 28 25 25 24 24 25 25 26 28 29 29 30 30 30 29 29 31 32 31
79 80 79 78 79 78 76 74 73 74 73 73 75 77 76 75 76 75 75 74 73 73 73 73 74 74 74 75 74 73 71 69 68 66 64 64 64 63 62 62 61 58 55 52 50 48 46 45 44 44 41 39 37 37 37 39 40 40 39 36 34 35 34 33 32 29 26 26 26 24 24 25 25 26 26 28 30 33 33 32 32 30 30 31 32
81 80 78 79 78 75 73 72 73 74 73 76 79 78 77 78 78 78 77 75 73 73 73 74 74 73 73 72 70 69 69 67 66 65 65 64 62 62 61 59 55 51 47 45 44 43 42 43 42 40 37 37 37 37 39 41 42 41 39 36 35 36 34 32 30 28 26 26 27 25 24 25 25 24 25 27 30 33 34 34 35 32 29 30 31
83 81 79 78 77 77 77 76 77 78 79 82 83 82 82 82 81 80 78 76 75 74 73 71 71 71 70 67 66 67 67 65 65 64 62 60 59 57 55 52 48 44 44 44 43 42 42 41 38 37 37 38 38 38 40 42 42 40 37 36 37 35 33 30 27 27 25 26 28 25 24 24 24 24 24 25 26 28 30 33 35 31 27 27 28
92 88 83 81 81 82 83 82 82 83 85 86 85 84 84 82 80 79 77 75 74 71 69 69 69 67 62 58 61 64 63 60 59 58 57 56 54 53 51 46 43 43 44 44 44 44 41 38 37 39 39 38 38 40 42 43 41 39 38 39 37 33 31 28 26 26 24 26 29 25 24 24 24 25 24 23 25 28 28 30 33 29 26 25 26
97 95 91 89 88 87 87 87 87 87 87 86 84 82 80 79 78 75 72 69 68 68 69 69 65 60 54 53 58 59 57 54 53 53 53 53 52 50 46 42 42 44 46 45 43 41 38 37 39 40 40 40 40 42 43 43 41 41 41 38 34 31 29 26 25 25 24 28 28 24 24 24 23 24 24 24 26 30 30 30 32 31 31 31 30
95 93 90 90 89 88 88 88 88 86 83 83 81 78 75 75 73 69 67 66 67 66 65 61 57 53 49 50 53 54 52 51 51 52 51 51 49 44 40 41 44 45 45 42 38 36 37 39 41 41 41 42 44 45 44 43 43 42 39 36 32 29 26 24 24 23 24 28 27 23 24 23 23 23 24 26 26 29 30 31 33 33 33 34 35
87 88 87 87 87 86 84 82 81 77 74 75 76 74 72 72 70 68 67 67 66 63 59 54 50 49 47 49 52 51 49 48 48 50 51 48 42 38 40 45 46 45 43 39 36 37 40 43 44 43 44 46 47 46 44 42 41 39 36 32 29 27 24 23 24 23 25 28 25 22 24 23 24 24 25 28 27 26 26 28 33 33 31 31 34
83 86 87 85 82 80 79 76 75 74 72 71 72 71 71 71 70 69 68 65 62 58 55 50 48 47 48 51 52 49 48 46 48 49 48 42 39 40 45 48 46 44 42 40 40 41 44 46 46 46 47 48 48 45 42 39 37 36 34 31 28 26 24 23 24 23 25 26 23 22 24 24 25 26 28 30 28 25 23 24 28 31 31 30 31
83 83 84 82 79 79 80 77 74 74 74 74 73 69 68 71 71 68 65 62 59 55 50 50 52 51 49 50 49 48 47 46 45 45 44 41 43 47 50 48 45 44 43 42 42 43 45 46 45 45 45 43 43 41 38 36 36 35 34 31 29 26 24 24 24 23 24 25 22 23 25 24 26 28 31 34 30 26 25 25 26 29 32 32 32
80 81 82 82 82 82 81 78 75 74 73 72 69 66 67 70 70 68 65 62 60 56 53 54 57 55 52 50 49 49 49 47 44 45 47 47 50 53 51 46 44 44 43 42 42 43 44 44 44 43 41 37 35 35 36 37 36 35 33 31 28 26 25 24 24 22 23 25 22 22 24 23 25 29 33 36 31 25 25 27 29 29 30 31 32
82 83 84 85 84 81 77 75 74 72 68 67 68 69 70 69 69 68 67 65 62 58 55 54 55 55 54 52 52 53 51 51 53 55 56 55 56 56 53 47 43 42 41 40 42 43 43 44 44 43 38 33 33 35 37 36 34 33 32 31 29 27 25 25 24 23 24 26 24 22 23 22 23 28 33 35 31 26 24 25 29 30 29 31 32
79 79 80 81 80 78 77 75 73 71 70 71 72 72 70 69 70 69 68 68 64 61 60 60 60 59 56 55 56 56 56 59 61 60 56 56 57 56 53 48 44 43 42 42 43 42 42 42 41 39 36 34 34 36 37 37 34 32 31 31 31 28 26 26 25 23 26 28 25 22 21 20 21 25 30 35 33 29 27 24 25 26 28 31 34
72 73 74 76 77 76 76 73 72 73 73 73 73 71 71 72 73 72 70 68 66 64 63 63 63 63 62 62 62 61 62 62 59 56 54 53 54 53 52 49 47 46 45 44 45 43 42 40 37 35 37 40 40 38 40 41 39 35 31 31 30 29 26 26 25 24 27 28 24 23 23 22 21 22 26 33 35 32 30 27 24 22 23 26 30
75 76 78 79 77 73 71 72 73 74 72 72 73 75 75 75 74 72 70 67 65 63 63 63 64 66 67 66 63 60 58 56 54 54 53 52 51 50 51 49 46 46 46 49 48 43 40 37 35 37 40 40 40 41 43 43 41 36 32 30 29 29 27 26 26 26 28 27 24 25 27 27 24 23 24 30 37 36 32 30 28 24 22 22 25
80 80 79 79 77 75 75 75 75 74 74 73 75 76 75 73 71 70 69 66 65 65 65 65 64 64 63 62 60 58 57 55 54 54 52 51 50 49 50 49 47 47 50 51 46 40 38 38 37 39 39 37 38 40 42 42 40 35 30 29 30 29 28 27 27 28 28 28 26 24 27 29 28 26 25 28 36 40 38 34 32 30 26 24 24
81 80 79 78 78 79 79 78 76 76 75 75 75 75 74 73 71 69 69 68 68 68 67 65 65 64 63 62 60 60 61 58 56 56 56 54 52 50 50 50 49 50 49 47 44 41 39 38 37 36 35 34 35 37 39 41 38 32 29 28 29 29 29 29 29 29 30 30 27 23 24 30 30 29 28 27 32 39 41 40 38 36 32 29 28
80 81 81 80 79 79 79 78 78 78 78 78 78 77 77 76 74 72 72 72 71 70 69 67 67 68 67 64 61 61 62 62 61 59 56 55 54 51 50 51 52 52 49 46 45 43 38 34 32 34 35 34 35 38 39 39 34 30 28 26 28 29 29 30 29 29 32 32 27 23 23 29 31 31 31 30 30 33 36 41 42 42 38 35 33
81 80 80 79 78 77 77 78 78 79 80 79 78 78 77 76 75 76 75 73 71 70 70 68 67 68 68 65 64 64 64 64 63 60 57 56 57 53 49 50 50 49 50 48 43 40 38 33 30 34 39 39 39 41 39 36 30 26 24 24 26 27 28 30 29 29 33 31 25 21 21 27 31 32 32 33 33 30 28 32 37 40 41 40 37
77 78 78 78 77 76 76 76 77 77 77 76 76 75 74 73 73 73 72 71 68 67 66 63 64 65 66 65 64 63 63 62 59 57 56 56 54 51 47 45 44 44 48 51 44 39 39 37 33 35 38 37 37 37 35 31 27 23 21 22 24 26 27 28 27 30 34 31 24 21 21 25 31 34 33 33 34 31 26 27 30 33 35 39 40
75 77 77 76 75 73 71 70 70 70 70 70 70 70 70 70 69 68 68 67 65 63 61 57 56 56 58 59 57 57 60 62 58 53 54 56 51 46 42 40 45 48 49 53 49 41 40 38 36 37 39 37 35 33 29 26 24 22 20 20 23 26 27 26 26 28 32 32 27 22 23 28 32 36 34 33 35 32 28 28 30 32 33 35 39
75 75 75 73 70 66 63 62 61 62 62 63 64 65 65 64 64 63 63 63 61 60 60 58 57 57 57 57 56 57 60 61 57 51 50 53 52 47 42 38 43 49 48 49 48 43 42 41 39 41 42 37 32 31 27 23 22 21 20 20 21 25 27 27 25 26 29 32 31 27 28 32 35 36 32 31 34 34 29 29 31 34 36 38 37
72 71 68 64 62 61 59 58 56 57 57 58 59 58 59 58 58 57 57 57 56 56 56 57 59 60 60 60 60 61 61 59 56 52 44 41 44 44 42 41 42 45 46 47 48 47 44 44 44 42 40 34 29 29 25 23 22 20 21 22 21 23 27 28 27 25 27 31 33 32 32 33 33 31 27 28 31 32 32 32 33 36 39 41 40
67 65 62 58 57 58 57 55 53 53 53 53 53 52 52 52 52 51 51 51 51 52 52 53 54 55 56 57 58 58 58 57 56 55 50 46 47 43 40 42 42 43 47 49 49 51 46 44 47 44 39 34 29 27 24 23 23 21 22 25 24 23 25 30 31 28 27 29 31 33 33 30 29 29 29 29 30 32 34 35 35 35 38 41 43
61 60 58 55 55 54 52 51 49 49 48 48 48 48 47 47 47 46 46 46 47 47 47 48 49 50 51 51 53 53 53 54 53 53 53 53 53 49 46 47 47 49 53 53 52 53 49 45 45 42 39 35 31 28 25 24 24 23 25 27 26 25 25 29 33 33 30 28 29 32 35 33 33 35 34 33 32 32 35 37 37 36 37 40 44
53 52 52 50 50 48 47 46 45 45 44 44 44 43 43 43 43 42 42 43 43 43 43 44 45 45 46 46 48 49 49 49 49 50 50 50 49 49 50 51 52 52 52 52 51 51 49 46 42 37 36 35 33 29 27 27 27 26 28 28 28 28 27 28 32 34 33 31 30 31 35 36 37 37 36 35 32 31 34 37 38 38 39 39 40
49 49 48 47 46 45 45 43 42 41 40 40 40 40 40 40 39 39 39 39 39 39 39 40 41 41 42 43 43 44 45 45 45 46 46 47 46 47 48 49 50 51 49 48 47 47 47 46 43 38 35 35 35 31 28 29 28 28 30 29 30 31 30 30 33 35 34 34 34 33 34 36 38 39 38 36 33 32 33 35 38 40 39 36 36
47 49 47 45 44 43 42 41 40 39 38 37 36 36 36 36 36 36 35 36 36 36 36 36 37 37 38 39 40 40 41 41 42 43 43 44 44 44 45 46 48 50 51 49 46 47 48 47 46 43 39 37 35 32 31 31 30 31 33 32 31 33 34 34 35 36 36 36 37 37 36 36 39 40 40 38 35 34 34 35 38 38 35 33 32
47 48 45 43 42 40 40 40 39 37 36 35 34 33 33 33 33 33 33 33 33 33 33 33 33 34 34 35 36 37 38 38 38 39 40 41 42 42 42 43 45 48 51 51 49 50 50 47 47 46 43 39 36 36 35 34 34 34 35 34 31 32 38 40 36 35 37 39 39 39 38 37 38 39 40 40 39 37 36 37 37 33 28 27 27
47 46 43 42 40 38 39 39 38 36 34 33 32 31 31 30 31 31 31 31 31 31 30 30 30 31 31 32 33 34 35 35 36 36 37 38 38 39 40 40 42 45 46 49 51 53 52 48 45 45 43 41 39 39 39 38 37 37 36 35 32 31 35 41 41 38 38 39 40 40 39 38 38 39 40 40 39 38 38 37 34 28 24 23 22
47 46 44 42 40 37 38 40 39 37 34 33 31 30 29 29 29 29 29 30 29 30 29 29 29 29 29 30 31 32 32 33 34 34 35 35 36 37 38 39 40 42 44 46 49 53 55 51 46 44 44 43 41 41 41 41 41 41 39 36 35 33 33 38 43 43 42 41 41 41 40 39 39 40 39 38 38 38 39 37 33 29 27 25 24
44 45 46 43 40 38 38 40 41 39 36 34 31 30 30 29 29 27 27 28 28 28 28 28 28 28 28 29 29 30 31 32 32 33 33 34 35 35 37 37 39 40 42 45 47 51 55 55 53 49 46 44 43 43 42 43 43 43 40 37 37 37 34 36 40 43 46 46 44 42 41 40 40 40 39 37 36 37 39 38 35 33 31 29 29
41 45 47 44 41 39 39 40 42 42 39 36 33 31 30 30 29 27 26 26 27 27 27 28 28 28 28 28 29 29 30 31 31 31 32 33 33 34 35 36 37 39 41 43 46 48 51 54 56 56 52 46 44 46 45 44 45 43 40 37 38 39 37 35 37 40 43 46 47 45 43 42 42 41 39 38 37 36 37 38 38 38 36 34 34
44 46 46 45 44 42 41 41 42 43 41 38 36 34 32 31 30 28 27 26 26 26 26 27 28 28 29 29 29 29 29 29 30 30 31 32 32 33 34 34 35 36 38 41 43 45 47 50 53 56 57 53 49 49 48 47 46 45 42 40 40 41 38 36 37 39 39 42 46 47 46 44 43 43 42 40 39 38 38 38 38 40 40 39 38
45 45 46 48 48 45 43 43 43 44 43 41 39 37 34 33 32 30 29 28 27 26 26 26 27 28 29 29 28 28 28 29 29 30 31 32 32 32 32 33 34 35 36 38 40 43 45 47 49 52 56 56 54 53 52 49 47 47 44 41 42 42 40 39 40 40 40 40 43 47 48 47 46 45 44 43 42 41 42 41 40 41 42 42 42
41 41 47 51 50 47 46 45 44 45 46 43 42 40 38 36 35 33 32 31 30 28 27 27 28 28 29 29 29 29 29 29 29 30 30 31 32 32 32 32 32 34 36 38 39 41 43 44 46 48 51 54 55 57 56 53 50 49 46 41 42 42 40 41 42 43 42 42 43 46 49 50 49 49 48 46 44 44 46 45 44 43 43 44 45
41 43 49 53 52 49 48 47 45 46 47 46 44 42 41 39 38 36 35 34 33 32 30 29 29 29 30 30 31 31 31 30 30 30 30 31 32 32 33 32 32 33 35 37 39 40 41 42 43 45 47 50 53 56 58 57 54 52 49 44 42 42 41 41 42 43 43 42 43 45 48 50 51 51 51 49 47 46 48 49 48 47 45 46 46
Wind_Direction
280 281 281 282 282 282 283 283 283 284 285 284 286 286 286 288 288 289 290 291 292 293 293 295 296 296 297 298 299 300 300 300 300 301 301 302 303 303 304 304 304 305 305 305 305 306 306 306 307 308 308 309 309 309 311 311 310 310 311 311 311 311 310 311 311 309 308 306 305 305 305 305 305 305 304 301 299 296 292 285 275 266 256 248 243
281 282 283 282 282 283 284 285 284 285 285 285 287 287 288 288 288 290 291 292 293 293 294 295 296 297 297 298 299 299 299 299 300 300 301 302 302 302 303 303 303 303 304 304 304 305 305 305 306 307 308 308 308 308 310 309 309 309 309 310 310 310 309 310 309 307 305 304 304 303 303 303 302 301 300 298 295 293 288 281 273 264 255 247 243
282 283 284 283 283 283 284 285 284 285 285 286 287 288 289 290 290 291 292 292 293 293 294 295 296 296 297 297 297 298 298 299 299 300 300 301 301 301 302 302 302 302 303 303 303 304 304 304 305 306 306 307 307 308 308 308 308 309 308 309 309 308 308 308 307 305 303 303 302 302 302 301 299 298 296 294 293 290 285 278 270 262 255 248 243
283 284 283 283 284 284 284 284 284 285 286 286 287 288 289 290 291 292 291 292 292 293 294 295 295 296 296 297 297 297 297 298 298 299 299 300 300 300 301 301 301 302 302 302 302 303 303 303 305 305 305 306 306 307 307 307 308 308 308 308 308 307 307 306 305 303 302 302 301 300 299 298 296 295 292 291 290 287 282 276 268 261 254 248 243
283 283 282 283 284 284 283 283 284 285 286 285 287 288 288 289 290 291 291 291 292 293 294 294 295 296 296 296 296 297 297 297 297 298 298 298 299 299 300 300 300 301 301 301 301 301 302 303 304 304 304 305 306 306 307 307 307 307 307 306 306 306 305 305 303 302 301 301 299 298 297 295 293 291 288 287 287 285 280 273 266 260 253 248 244
282 282 283 283 283 283 283 283 284 285 285 286 287 287 288 289 289 290 290 291 292 293 293 294 295 295 295 295 296 296 296 296 296 297 297 297 298 299 299 299 300 300 300 300 300 301 301 302 302 303 303 304 305 306 306 306 306 306 305 305 305 304 304 303 302 301 301 298 297 296 294 292 290 288 285 284 284 282 278 271 265 258 253 248 245
281 281 281 282 282 283 283 284 284 284 285 286 287 288 288 289 289 289 290 291 291 292 293 294 294 294 294 295 295 295 295 295 296 296 296 297 297 298 299 299 299 299 299 299 299 300 300 301 301 302 303 304 304 305 305 305 305 304 303 303 303 302 303 302 301 300 298 296 295 294 292 289 287 285 283 281 281 279 275 268 262 257 252 247 246
280 281 281 281 281 282 283 284 284 285 285 286 286 287 288 288 288 289 290 291 291 292 292 293 293 293 293 294 294 294 295 295 295 295 296 296 297 298 299 299 298 298 298 298 299 299 300 300 301 302 303 303 303 304 304 304 304 302 301 302 302 301 301 301 300 298 296 295 294 291 289 286 285 283 280 279 277 274 271 265 260 255 250 247 246
280 280 280 281 281 282 283 284 284 285 286 286 287 287 287 287 288 289 289 290 290 291 291 291 291 292 292 293 293 293 294 294 295 295 296 296 297 298 298 298 297 297 298 298 299 299 299 300 300 301 301 302 302 303 303 302 301 300 301 302 301 301 300 299 299 297 294 293 292 289 287 284 281 280 277 276 273 269 265 261 257 254 250 247 245
279 279 279 280 281 282 283 283 283 285 285 286 287 287 287 287 288 288 288 289 289 290 290 290 291 291 292 292 292 293 293 294 294 295 295 296 296 296 296 296 295 296 297 298 298 298 298 298 299 300 300 300 301 302 301 300 299 300 301 301 301 300 298 297 297 295 293 294 294 288 282 280 279 278 276 274 270 264 260 255 253 252 251 249 246
278 278 279 280 281 282 282 282 283 285 285 286 286 287 287 287 287 287 287 288 288 288 289 290 291 291 291 291 292 292 292 293 294 294 294 295 295 295 295 295 295 296 297 297 297 297 297 298 298 298 299 299 300 301 299 298 298 299 300 300 300 298 296 296 295 293 293 294 291 284 282 282 279 276 276 274 268 261 257 252 249 250 251 252 248
278 279 280 280 281 282 282 282 284 285 285 286 286 285 285 286 287 287 287 287 287 287 288 290 290 290 291 291 291 291 292 293 293 293 293 293 293 293 293 294 295 296 296 296 296 296 296 297 297 297 298 299 300 299 298 297 297 298 300 299 298 296 295 294 292 290 291 288 283 281 281 278 273 269 268 268 266 261 258 253 248 248 250 252 251
278 279 280 280 280 281 281 283 284 285 285 285 284 284 284 285 286 286 286 286 286 287 288 289 289 290 290 290 290 290 291 292 292 291 292 292 292 292 293 294 295 295 295 295 295 295 295 295 295 296 296 298 298 297 296 295 295 298 299 298 296 294 293 292 289 287 287 282 278 277 273 269 265 261 258 259 261 260 258 254 248 246 249 252 253
278 278 279 280 280 280 281 283 285 284 284 283 283 283 284 284 284 285 285 285 286 286 287 288 288 289 289 289 290 290 291 291 290 290 290 290 291 291 292 293 294 294 295 295 294 294 294 294 294 294 295 296 296 295 294 293 295 298 299 297 294 293 292 290 286 284 283 278 275 272 266 262 259 254 253 254 257 258 258 256 248 245 248 251 253
278 278 278 278 280 281 281 282 283 283 282 281 282 284 284 284 284 284 284 285 285 286 286 287 288 288 288 289 290 290 290 289 289 289 289 289 289 290 291 292 293 294 294 293 292 292 293 293 293 293 293 294 294 293 292 293 296 298 298 296 293 291 291 288 284 283 281 276 272 269 263 259 255 249 247 249 253 256 256 255 249 246 247 250 252
278 279 278 278 279 281 281 281 281 281 280 280 283 284 283 284 283 283 284 285 285 285 286 287 288 288 288 289 289 289 288 288 287 287 286 287 288 289 290 291 292 293 293 292 291 291 291 291 292 291 291 292 292 292 291 294 296 297 296 294 292 291 289 285 283 282 277 272 271 267 260 256 253 247 242 243 247 251 253 251 248 246 247 250 251
277 278 278 279 279 278 278 279 279 278 278 280 283 282 282 283 282 283 284 284 284 285 286 286 287 287 289 289 288 287 286 285 285 285 285 286 288 290 291 291 291 290 291 291 290 290 289 290 290 288 289 289 290 289 291 294 296 295 293 291 292 291 286 283 281 278 273 272 271 265 258 254 251 246 239 238 242 248 252 249 244 243 246 248 250
276 277 277 278 277 277 277 277 277 276 277 280 282 280 280 282 281 282 283 284 285 286 286 286 286 288 289 289 287 285 284 284 285 285 286 288 290 291 291 290 288 289 290 290 289 288 287 286 284 284 286 286 285 287 291 295 295 293 290 289 291 289 284 282 278 272 271 271 267 261 256 252 249 243 234 234 243 251 254 246 240 239 242 246 248
276 276 276 276 276 276 276 276 276 276 277 280 280 279 279 280 280 282 283 284 284 285 285 286 288 289 289 286 283 283 284 285 285 285 288 290 291 290 289 286 287 290 291 291 290 288 284 279 279 284 285 284 285 288 292 295 294 291 289 289 288 285 283 279 272 269 270 266 263 260 255 250 246 242 233 235 249 256 257 246 236 236 240 245 250
274 274 273 273 274 275 275 276 276 276 277 278 278 278 278 279 280 282 282 282 283 284 285 287 287 288 287 282 280 282 284 285 284 284 287 289 289 288 284 283 289 291 292 292 290 284 277 274 279 285 285 286 288 290 294 295 292 289 288 287 285 283 281 276 269 267 266 262 261 260 256 250 244 242 233 234 247 251 254 245 234 236 244 248 251
272 272 272 273 274 274 276 276 276 276 277 276 276 277 278 279 280 280 280 281 283 284 286 287 286 285 282 277 278 282 284 285 283 283 285 287 287 284 278 284 291 291 292 291 283 276 272 276 281 283 285 288 289 291 293 294 290 287 286 284 282 280 277 272 266 264 261 258 258 256 251 246 241 241 231 230 239 244 251 244 233 236 246 252 252
272 273 274 274 275 274 274 275 275 275 277 275 275 277 278 279 279 278 279 280 281 282 285 287 284 280 276 276 279 281 283 283 283 284 286 285 281 275 277 289 292 288 289 283 273 271 273 278 280 282 287 290 290 291 292 290 285 283 283 283 281 277 272 267 263 258 256 255 255 252 245 240 238 240 234 232 236 241 249 245 235 235 244 253 255
273 273 274 274 273 272 271 272 274 275 276 275 276 279 278 278 278 278 279 278 279 280 282 282 280 276 274 275 277 279 281 280 282 284 284 278 270 274 284 291 288 285 283 276 271 272 275 279 281 284 290 292 291 290 288 283 281 282 283 282 278 272 267 262 258 253 251 252 252 248 242 236 234 238 238 237 239 238 240 241 239 240 244 250 254
272 272 271 270 270 271 270 271 274 275 275 275 277 278 276 275 275 276 276 275 277 279 277 274 274 272 271 273 273 276 276 274 281 282 278 272 270 280 289 288 284 283 281 276 273 275 279 282 285 289 291 292 290 286 282 279 281 283 282 281 276 269 263 257 254 250 248 249 247 245 244 237 231 233 235 237 240 239 236 238 244 249 250 251 253
271 270 269 268 269 271 271 271 274 276 275 274 273 272 272 273 272 273 273 273 276 277 274 271 270 266 266 269 270 273 271 267 273 276 274 274 275 283 286 284 285 283 279 277 277 280 283 285 289 290 291 290 287 281 279 281 284 284 281 279 274 266 260 253 249 244 242 246 248 246 246 241 233 230 230 232 235 237 241 244 245 248 247 248 252
269 269 269 268 269 270 271 273 274 274 273 271 270 271 272 273 272 274 274 275 275 274 271 269 268 267 265 265 267 271 269 266 270 273 273 273 276 283 283 282 284 279 275 277 280 284 287 288 290 288 287 285 282 280 280 283 285 284 282 276 269 262 255 248 244 235 231 239 245 247 247 244 236 230 228 227 226 230 239 246 246 246 243 242 247
269 269 269 269 269 269 271 274 273 271 270 271 272 271 271 272 273 274 275 276 274 272 269 266 267 268 266 265 267 268 268 270 272 273 272 272 277 280 278 278 280 273 272 279 282 286 288 289 289 283 280 280 281 281 282 287 286 285 282 274 268 262 254 247 243 233 227 232 237 244 250 249 240 232 229 222 219 225 231 235 243 250 249 246 247
268 269 270 271 272 272 272 273 272 272 271 271 271 269 270 273 274 274 274 274 273 271 269 266 266 266 266 268 268 268 271 272 270 269 271 274 276 275 272 275 275 268 271 280 282 284 286 287 286 278 276 279 281 281 283 286 285 284 279 270 267 262 254 246 243 235 228 227 229 241 252 257 249 239 235 224 218 222 224 225 231 240 246 247 247
271 272 272 273 273 273 271 271 272 272 272 271 271 271 272 274 274 274 273 272 271 270 268 268 267 267 267 268 269 269 269 267 266 267 270 273 273 270 270 273 271 265 270 278 279 280 282 284 281 277 277 279 282 285 285 282 281 281 275 266 262 259 254 246 240 234 226 222 223 235 249 257 257 250 243 229 221 222 225 226 229 231 237 241 242
272 273 273 273 272 271 270 269 269 269 269 270 272 273 274 275 274 273 273 271 270 269 269 269 268 267 266 267 268 268 264 262 264 266 269 271 269 268 269 269 265 265 272 276 275 276 278 278 276 276 276 277 283 286 284 280 277 275 269 262 259 256 253 245 238 232 220 214 217 226 241 252 258 259 252 236 226 224 227 231 233 232 232 235 237
272 273 272 272 271 270 269 268 267 268 269 270 271 272 273 273 273 271 271 271 271 270 270 269 268 266 266 267 266 264 262 262 265 266 269 267 264 267 267 263 262 267 272 270 267 270 274 274 270 268 267 273 281 282 279 277 273 268 264 261 258 255 251 243 237 230 216 210 213 217 234 246 253 260 259 249 234 228 230 232 234 235 233 234 237
272 272 272 272 272 271 269 269 270 271 271 271 270 270 270 270 269 269 269 270 270 269 270 269 267 266 266 266 263 262 263 263 265 266 266 263 262 265 263 262 264 268 267 263 261 264 268 268 263 261 263 269 275 276 276 273 267 262 262 260 256 252 248 243 236 228 216 211 212 213 233 244 247 257 261 256 244 234 234 235 236 237 236 238 241
270 270 270 271 272 272 273 273 274 274 274 273 271 270 269 268 268 268 269 269 268 267 267 266 264 264 264 264 262 262 263 263 263 264 265 264 263 263 263 265 265 265 262 257 258 260 261 261 260 264 269 271 273 275 274 268 261 259 263 262 256 249 244 242 236 226 217 213 212 214 230 241 248 257 259 256 247 238 239 241 243 243 241 241 243
267 268 270 271 273 275 276 276 275 274 274 274 273 272 271 270 269 268 268 267 267 266 265 263 263 263 262 263 262 261 262 263 263 264 264 264 264 264 264 265 263 262 260 256 256 255 255 256 257 264 271 272 272 272 267 259 256 256 260 261 256 249 244 242 237 228 219 212 209 215 229 240 251 257 258 253 243 238 244 250 252 253 251 247 243
268 269 270 272 274 275 275 275 274 275 275 275 274 273 272 271 269 268 267 266 264 262 261 260 261 262 261 260 261 261 262 263 263 263 262 261 262 261 259 261 262 261 259 256 252 250 251 253 255 260 268 271 267 262 255 249 251 253 253 255 254 251 246 242 239 233 226 218 209 216 237 246 250 253 254 250 240 236 244 251 254 256 257 256 248
269 270 271 272 273 274 275 276 276 277 276 275 274 273 272 271 270 269 267 266 264 261 259 258 258 259 259 258 258 260 262 263 263 262 262 262 261 256 251 251 254 256 257 253 246 242 245 247 251 258 266 268 259 250 245 243 247 248 248 251 250 249 247 244 240 236 233 227 218 218 233 240 242 245 250 249 242 239 243 249 251 250 251 255 253
269 270 272 273 273 275 278 280 280 279 278 276 275 274 273 272 270 269 268 266 265 262 260 259 258 258 258 258 258 258 259 259 259 257 257 259 257 253 249 246 248 251 252 248 242 237 239 244 250 257 262 260 250 242 241 241 246 248 249 250 247 245 245 244 240 236 234 231 227 223 225 230 234 238 247 253 249 247 247 247 247 248 250 252 254
268 271 273 275 277 279 281 283 282 281 280 278 277 275 274 272 271 270 268 267 266 264 262 260 259 258 257 258 258 258 257 257 256 254 250 249 249 247 245 243 243 243 243 244 241 235 234 241 248 252 255 252 243 239 241 243 246 248 250 249 245 243 243 243 241 239 237 233 231 227 223 224 229 235 246 253 254 254 252 250 250 253 255 253 250
269 272 275 278 280 282 283 283 282 280 279 278 277 276 274 273 271 270 269 267 266 265 263 261 260 259 258 257 257 256 256 256 255 254 251 249 248 245 241 238 237 238 241 243 240 234 233 238 244 248 251 246 236 236 239 239 240 241 245 245 242 240 239 240 239 240 240 236 234 230 223 220 225 236 244 247 250 256 257 253 253 260 263 255 248
273 275 278 281 282 284 284 282 281 279 278 278 277 276 274 273 271 270 269 267 266 264 263 262 260 260 258 257 256 255 255 254 253 252 251 250 248 244 240 239 239 239 239 240 236 232 233 236 239 243 245 239 230 232 232 233 239 238 238 240 239 236 234 234 234 236 239 239 238 235 230 224 224 230 235 237 242 252 258 254 253 262 266 256 247
276 278 281 284 284 285 284 282 281 280 279 278 277 276 275 274 272 271 269 267 266 265 263 262 260 259 258 257 256 254 254 253 251 251 250 249 247 244 241 240 239 236 235 235 232 230 231 231 231 235 240 234 228 228 227 228 236 235 233 235 238 236 232 230 229 231 235 239 240 237 236 234 231 229 229 230 236 247 254 252 252 260 261 252 246
275 277 280 283 284 284 283 281 281 280 280 278 278 277 276 275 274 272 270 269 267 265 263 261 260 259 258 257 255 254 253 252 250 249 248 247 245 243 241 239 237 234 232 232 230 227 228 228 229 233 235 230 225 225 223 220 223 227 229 231 236 238 235 231 228 228 232 235 238 238 236 236 236 234 230 227 232 242 249 251 253 257 254 248 246
270 274 278 281 281 281 280 280 280 280 280 280 279 278 277 276 275 274 273 271 268 266 264 262 260 258 257 256 255 253 252 251 250 248 246 245 244 242 240 238 236 234 233 234 230 224 226 229 230 231 231 227 223 222 219 216 218 225 229 230 235 238 237 236 232 231 232 233 236 236 235 235 236 238 235 230 231 234 240 248 251 250 245 243 242
267 271 277 278 277 278 279 280 280 280 280 280 280 279 278 277 275 275 274 273 270 268 266 263 261 258 256 255 253 253 251 250 248 246 245 244 243 242 240 237 237 236 234 234 230 224 224 227 227 227 228 226 222 220 219 216 219 228 231 233 235 235 237 238 236 236 236 236 236 236 236 235 234 237 238 238 237 232 233 240 241 236 232 230 229
264 269 274 273 273 275 277 279 279 279 279 279 280 279 278 276 274 273 273 272 271 269 267 264 262 258 255 253 252 251 250 249 247 246 244 243 242 241 240 238 236 236 235 234 231 227 225 225 225 223 225 225 221 220 222 219 221 228 233 236 235 234 236 235 234 236 238 239 238 238 237 235 233 234 236 240 241 236 234 234 230 226 226 223 225
265 271 272 268 269 274 275 278 279 278 277 277 278 278 277 276 274 274 272 270 269 267 266 263 261 258 255 252 250 248 247 247 247 246 245 243 242 240 239 238 236 236 235 234 233 231 229 228 228 226 224 224 220 219 223 223 223 225 230 234 234 233 235 233 231 233 237 239 240 240 238 235 233 231 231 234 238 238 237 234 228 226 228 227 228
268 273 269 264 268 273 273 275 276 276 276 275 275 275 275 275 275 275 273 270 268 265 264 262 259 257 254 252 249 247 247 246 246 246 245 244 243 242 240 239 237 236 236 235 234 234 233 232 232 231 228 225 221 220 222 223 223 224 227 232 232 231 233 234 232 231 235 239 240 241 239 235 231 229 228 230 233 235 237 235 229 226 228 231 231
267 269 266 263 269 272 271 272 273 273 274 273 273 272 271 273 273 274 273 271 268 264 262 260 257 255 252 251 249 247 246 246 246 245 245 245 245 244 243 241 238 237 236 236 236 235 235 234 233 233 232 229 225 223 222 222 223 224 228 233 233 232 233 235 235 232 232 236 238 240 240 238 234 230 227 229 231 232 233 235 231 227 228 230 232
263 265 264 265 270 272 270 270 270 271 271 270 270 269 268 269 269 270 270 269 267 263 260 257 255 253 251 249 248 246 244 244 245 245 243 244 245 245 244 243 240 238 236 237 237 236 235 236 235 234 234 233 231 227 225 224 223 224 229 233 234 233 233 236 238 235 233 234 235 236 239 240 239 236 232 230 230 229 228 231 233 232 231 231 232
261 259 261 265 270 272 271 270 269 270 270 268 268 268 267 266 266 266 266 266 265 263 259 256 253 251 249 246 244 243 242 243 244 245 244 243 243 243 243 243 242 240 237 237 238 238 237 237 237 236 236 235 234 231 229 227 226 225 227 229 231 232 232 235 238 238 236 235 234 234 236 238 239 240 239 236 233 229 226 228 233 234 234 233 234
259 251 257 264 268 270 270 270 269 268 269 269 267 267 266 265 264 263 263 263 263 263 261 257 254 252 249 246 243 241 240 239 240 242 244 243 243 242 241 241 242 242 241 240 241 242 241 240 240 238 238 237 236 235 234 232 230 228 226 227 228 228 229 231 235 237 238 238 237 235 234 235 236 237 240 240 237 232 228 228 232 234 235 235 236
Height
10885 10887 10888 10888 10888 10887 10886 10885 10884 10884 10884 10883 10883 10882 10881 10880 10880 10879 10879 10878 10877 10876 10875 10873 10872 10871 10870 10867 10866 10864 10862 10861 10859 10859 10859 10859 10858 10856 10854 10852 10851 10849 10847 10845 10844 10844 10842 10840 10839 10838 10836 10835 10834 10832 10831 10829 10828 10827 10825 10824 10823 10822 10820 10819 10817 10815 10814 10812 10811 10810 10809 10808 10808 10808 10809 10809 10809 10809 10809 10809 10809 10810 10810 10811 10811
10881 10882 10882 10883 10882 10881 10881 10879 10879 10879 10879 10878 10878 10877 10876 10875 10875 10875 10874 10873 10872 10871 10870 10869 10867 10866 10865 10863 10861 10859 10857 10856 10855 10854 10854 10854 10853 10852 10850 10848 10846 10844 10843 10841 10839 10839 10838 10836 10835 10834 10832 10831 10830 10828 10827 10825 10824 10823 10821 10820 10819 10818 10817 10815 10813 10812 10810 10809 10808 10807 10806 10806 10805 10805 10806 10806 10806 10807 10807 10808 10808 10808 10809 10809 10810
10876 10877 10877 10877 10876 10876 10875 10873 10873 10873 10874 10874 10873 10873 10871 10871 10870 10870 10869 10868 10867 10866 10865 10864 10863 10861 10860 10858 10856 10855 10853 10851 10850 10849 10848 10848 10848 10847 10845 10843 10841 10839 10838 10837 10835 10834 10833 10832 10830 10829 10828 10826 10825 10823 10822 10821 10820 10818 10816 10816 10815 10814 10813 10811 10810 10808 10807 10806 10805 10804 10804 10803 10803 10803 10803 10804 10804 10805 10805 10806 10806 10807 10807 10808 10808
10871 10872 10871 10870 10870 10870 10869 10868 10868 10868 10869 10868 10868 10868 10867 10866 10865 10865 10864 10863 10862 10861 10860 10859 10858 10856 10855 10853 10851 10850 10848 10846 10845 10844 10843 10842 10842 10841 10841 10839 10837 10834 10833 10832 10830 10829 10829 10827 10826 10825 10823 10822 10820 10819 10818 10816 10815 10814 10812 10811 10811 10810 10809 10807 10806 10805 10804 10803 10802 10801 10801 10801 10800 10800 10801 10802 10802 10802 10803 10804 10805 10805 10806 10807 10807
10866 10867 10866 10865 10865 10864 10863 10862 10862 10862 10863 10863 10863 10863 10862 10861 10860 10859 10858 10857 10856 10856 10855 10855 10853 10851 10849 10848 10846 10844 10843 10841 10839 10838 10837 10837 10836 10836 10835 10834 10832 10830 10827 10826 10825 10824 10823 10822 10821 10820 10818 10817 10816 10814 10813 10812 10811 10809 10808 10807 10807 10806 10804 10804 10803 10802 10801 10800 10799 10799 10798 10798 10798 10798 10798 10799 10800 10800 10801 10802 10803 10804 10805 10806 10806
10860 10861 10860 10859 10859 10859 10857 10856 10856 10856 10857 10857 10858 10857 10857 10856 10855 10854 10853 10852 10851 10851 10850 10850 10848 10846 10844 10843 10841 10839 10837 10835 10834 10832 10831 10831 10830 10830 10829 10828 10827 10825 10822 10820 10820 10818 10818 10817 10816 10815 10813 10812 10811 10810 10808 10807 10806 10805 10804 10804 10803 10801 10800 10800 10799 10799 10798 10797 10796 10796 10795 10795 10795 10795 10796 10796 10798 10798 10799 10800 10801 10802 10803 10804 10805
10856 10856 10854 10855 10854 10853 10852 10851 10850 10851 10851 10852 10852 10852 10852 10850 10849 10848 10847 10847 10846 10846 10845 10844 10843 10841 10839 10837 10836 10834 10832 10830 10829 10827 10826 10825 10824 10824 10824 10823 10821 10820 10818 10815 10814 10813 10812 10812 10811 10810 10808 10807 10806 10805 10803 10802 10802 10801 10800 10799 10798 10796 10796 10796 10796 10796 10795 10794 10793 10793 10793 10793 10793 10793 10794 10794 10796 10796 10797 10798 10799 10801 10802 10803 10804
10850 10850 10849 10849 10848 10847 10846 10845 10844 10845 10845 10846 10846 10846 10846 10845 10844 10843 10842 10841 10841 10840 10839 10839 10838 10836 10834 10831 10830 10828 10826 10824 10823 10822 10820 10819 10819 10818 10818 10818 10815 10814 10813 10811 10809 10808 10807 10806 10805 10804 10803 10802 10801 10800 10799 10798 10797 10796 10796 10795 10794 10793 10792 10792 10792 10792 10792 10791 10790 10790 10790 10790 10790 10791 10792 10793 10794 10795 10795 10796 10797 10799 10800 10801 10802
10844 10843 10842 10843 10842 10842 10841 10839 10839 10839 10839 10840 10841 10841 10840 10839 10838 10838 10837 10836 10835 10834 10834 10833 10832 10830 10828 10826 10824 10822 10820 10819 10817 10816 10815 10814 10813 10812 10812 10812 10810 10808 10807 10805 10804 10802 10801 10800 10800 10799 10798 10797 10796 10795 10794 10793 10793 10793 10792 10791 10790 10789 10789 10788 10788 10788 10788 10788 10788 10787 10787 10787 10788 10789 10790 10791 10792 10793 10793 10794 10795 10797 10798 10799 10800
10837 10835 10836 10836 10837 10837 10836 10834 10834 10833 10834 10834 10835 10835 10834 10833 10833 10832 10831 10830 10829 10829 10829 10828 10827 10825 10823 10820 10818 10816 10814 10813 10811 10810 10810 10808 10807 10806 10806 10806 10805 10803 10801 10800 10798 10797 10795 10794 10794 10794 10793 10792 10791 10790 10790 10789 10789 10789 10788 10788 10786 10786 10785 10785 10785 10785 10784 10784 10784 10784 10785 10785 10785 10786 10788 10789 10790 10791 10791 10792 10793 10795 10796 10798 10799
10829 10828 10829 10830 10831 10831 10830 10829 10829 10829 10829 10829 10829 10828 10827 10827 10827 10826 10825 10824 10824 10823 10823 10822 10821 10820 10817 10815 10812 10810 10808 10807 10805 10804 10803 10802 10801 10800 10800 10799 10799 10798 10796 10795 10792 10791 10789 10788 10789 10789 10788 10787 10787 10786 10785 10785 10785 10785 10785 10784 10783 10782 10782 10781 10782 10781 10781 10781 10781 10780 10781 10782 10783 10784 10785 10787 10788 10789 10790 10790 10791 10793 10794 10796 10797
10823 10821 10822 10824 10825 10824 10824 10823 10824 10824 10824 10824 10823 10822 10821 10821 10820 10819 10819 10818 10818 10818 10818 10817 10815 10814 10811 10809 10806 10803 10802 10800 10799 10797 10796 10796 10795 10794 10793 10793 10792 10792 10791 10789 10787 10786 10784 10783 10783 10783 10784 10783 10782 10782 10781 10781 10781 10781 10781 10781 10779 10779 10778 10778 10779 10778 10779 10779 10778 10778 10779 10780 10781 10782 10783 10785 10786 10787 10788 10789 10790 10791 10793 10794 10796
10816 10815 10816 10818 10819 10818 10818 10818 10818 10819 10818 10817 10816 10815 10815 10814 10814 10813 10813 10812 10812 10813 10812 10811 10810 10808 10805 10802 10799 10797 10796 10794 10792 10791 10789 10789 10788 10788 10788 10787 10787 10786 10785 10784 10782 10781 10779 10777 10777 10778 10779 10778 10778 10777 10777 10777 10777 10777 10777 10777 10776 10775 10775 10775 10775 10775 10776 10777 10777 10777 10777 10778 10779 10780 10781 10782 10784 10785 10786 10787 10788 10790 10791 10793 10794
10811 10808 10810 10812 10813 10812 10812 10812 10812 10813 10812 10810 10809 10809 10809 10808 10807 10806 10806 10806 10807 10807 10806 10805 10804 10802 10799 10796 10793 10791 10790 10787 10786 10783 10782 10782 10781 10781 10781 10782 10781 10780 10780 10779 10777 10775 10774 10772 10772 10773 10774 10774 10773 10773 10773 10773 10773 10773 10773 10772 10772 10772 10771 10771 10772 10771 10772 10774 10774 10775 10775 10776 10777 10778 10779 10780 10781 10783 10785 10786 10787 10788 10790 10791 10793
10806 10803 10804 10806 10807 10807 10806 10807 10806 10806 10805 10803 10803 10803 10802 10801 10800 10799 10800 10801 10801 10801 10800 10799 10797 10795 10792 10789 10787 10785 10783 10780 10779 10777 10776 10776 10775 10776 10776 10776 10776 10776 10774 10773 10772 10770 10769 10767 10767 10768 10770 10770 10770 10769 10769 10769 10769 10769 10769 10768 10768 10768 10768 10768 10768 10768 10769 10770 10771 10772 10773 10773 10774 10775 10776 10778 10779 10781 10783 10784 10785 10787 10788 10790 10792
10800 10799 10799 10800 10802 10802 10801 10801 10800 10799 10798 10797 10797 10797 10796 10795 10793 10793 10794 10795 10795 10794 10793 10792 10791 10789 10787 10784 10781 10778 10775 10773 10772 10771 10770 10770 10770 10771 10771 10771 10771 10771 10770 10768 10767 10766 10764 10763 10763 10763 10765 10766 10766 10765 10765 10765 10765 10765 10765 10764 10765 10765 10765 10764 10764 10765 10766 10767 10767 10769 10770 10770 10771 10772 10774 10775 10777 10779 10781 10782 10783 10785 10786 10788 10790
10795 10795 10794 10795 10795 10796 10795 10795 10793 10792 10792 10791 10791 10790 10790 10788 10787 10786 10787 10788 10788 10788 10787 10786 10785 10783 10781 10778 10774 10769 10767 10765 10765 10764 10764 10765 10765 10765 10766 10765 10766 10765 10765 10764 10763 10762 10761 10759 10759 10759 10760 10761 10761 10761 10761 10761 10761 10760 10760 10760 10761 10761 10761 10761 10761 10761 10762 10764 10763 10765 10767 10767 10768 10769 10771 10773 10775 10777 10778 10780 10781 10782 10784 10785 10787
10790 10791 10790 10790 10789 10789 10788 10787 10786 10785 10785 10785 10785 10784 10783 10782 10780 10780 10781 10782 10781 10782 10781 10780 10779 10778 10776 10771 10765 10761 10759 10759 10758 10758 10758 10759 10760 10760 10760 10759 10760 10760 10760 10759 10759 10759 10758 10756 10756 10755 10756 10757 10757 10757 10757 10757 10756 10756 10756 10756 10756 10757 10757 10758 10758 10758 10760 10760 10758 10761 10764 10764 10766 10767 10769 10771 10773 10774 10776 10777 10778 10780 10782 10783 10785
10785 10786 10785 10784 10781 10780 10780 10780 10780 10779 10779 10778 10777 10776 10776 10775 10774 10774 10775 10775 10775 10775 10774 10774 10774 10774 10771 10762 10755 10753 10754 10754 10753 10752 10753 10754 10754 10754 10754 10754 10755 10755 10755 10755 10755 10754 10754 10754 10753 10752 10752 10752 10753 10753 10752 10752 10752 10751 10752 10752 10752 10752 10753 10755 10755 10755 10757 10756 10754 10758 10761 10761 10763 10764 10765 10767 10770 10772 10773 10774 10776 10778 10780 10781 10783
10778 10779 10778 10776 10774 10773 10772 10772 10772 10772 10773 10771 10770 10769 10769 10769 10768 10768 10768 10769 10769 10769 10768 10768 10769 10769 10765 10753 10748 10748 10749 10749 10748 10747 10747 10748 10748 10749 10749 10750 10750 10750 10751 10751 10751 10750 10750 10750 10749 10748 10747 10748 10748 10748 10748 10747 10747 10747 10747 10748 10748 10749 10750 10751 10751 10752 10754 10751 10751 10756 10757 10758 10760 10761 10762 10764 10766 10769 10770 10772 10774 10776 10778 10779 10781
10771 10772 10771 10768 10767 10767 10765 10765 10765 10767 10767 10763 10762 10762 10763 10763 10762 10762 10762 10763 10763 10763 10763 10764 10765 10763 10757 10745 10742 10744 10744 10744 10743 10742 10743 10743 10744 10744 10744 10745 10745 10745 10746 10747 10747 10746 10745 10745 10745 10744 10743 10744 10743 10743 10743 10742 10742 10742 10743 10744 10744 10745 10746 10747 10748 10749 10749 10747 10749 10753 10754 10756 10757 10758 10760 10761 10763 10766 10768 10770 10771 10773 10775 10777 10778
10762 10763 10762 10760 10759 10759 10757 10759 10760 10761 10760 10756 10755 10757 10758 10756 10755 10755 10756 10757 10757 10758 10760 10760 10758 10755 10748 10738 10737 10740 10741 10741 10739 10738 10739 10739 10740 10741 10741 10741 10741 10741 10741 10743 10743 10743 10741 10741 10741 10741 10740 10739 10739 10739 10738 10737 10737 10737 10739 10740 10741 10741 10743 10744 10744 10746 10745 10743 10747 10750 10751 10753 10755 10756 10758 10759 10761 10763 10765 10767 10769 10771 10772 10774 10776
10755 10755 10754 10751 10750 10750 10751 10754 10754 10754 10753 10749 10749 10751 10751 10748 10747 10748 10750 10750 10751 10755 10758 10755 10749 10746 10739 10732 10734 10737 10737 10738 10736 10736 10736 10736 10737 10737 10737 10736 10736 10735 10737 10738 10739 10739 10738 10737 10737 10737 10737 10735 10735 10734 10734 10733 10733 10733 10735 10736 10737 10738 10739 10740 10740 10742 10741 10740 10744 10747 10748 10750 10752 10754 10755 10757 10758 10760 10762 10764 10767 10769 10770 10772 10773
10749 10748 10747 10744 10743 10743 10745 10749 10749 10749 10748 10744 10745 10745 10743 10740 10740 10741 10743 10744 10746 10752 10753 10748 10740 10736 10733 10731 10733 10733 10734 10736 10734 10733 10732 10733 10733 10732 10732 10730 10730 10730 10732 10734 10735 10735 10735 10735 10734 10734 10733 10732 10730 10729 10729 10729 10729 10729 10730 10732 10734 10734 10735 10736 10737 10739 10738 10738 10742 10744 10745 10747 10748 10750 10752 10754 10756 10758 10760 10762 10764 10766 10768 10769 10771
10740 10738 10738 10738 10738 10737 10737 10742 10743 10743 10742 10739 10738 10738 10735 10734 10734 10734 10737 10738 10742 10746 10743 10739 10733 10730 10730 10729 10730 10729 10730 10731 10730 10730 10728 10728 10728 10727 10726 10725 10726 10727 10729 10730 10730 10731 10731 10731 10730 10730 10729 10728 10727 10725 10725 10725 10725 10726 10726 10728 10729 10730 10731 10733 10734 10735 10735 10735 10739 10741 10742 10744 10745 10747 10748 10751 10754 10755 10757 10759 10761 10762 10764 10766 10768
10728 10727 10728 10730 10731 10731 10731 10734 10736 10736 10735 10731 10729 10728 10728 10728 10728 10728 10729 10731 10736 10738 10733 10729 10727 10726 10726 10726 10727 10726 10726 10726 10725 10725 10724 10724 10723 10722 10721 10722 10723 10724 10725 10725 10726 10726 10727 10727 10727 10726 10724 10724 10723 10722 10721 10721 10721 10722 10723 10723 10724 10726 10727 10728 10730 10732 10731 10733 10736 10738 10739 10740 10742 10744 10745 10748 10751 10752 10754 10755 10757 10759 10760 10762 10764
10718 10718 10719 10720 10723 10726 10726 10726 10726 10727 10726 10723 10721 10719 10719 10720 10721 10722 10723 10724 10727 10729 10727 10724 10721 10721 10721 10722 10723 10723 10722 10721 10720 10719 10719 10720 10718 10717 10716 10717 10720 10720 10720 10721 10721 10721 10722 10724 10724 10722 10720 10719 10719 10718 10718 10717 10717 10718 10719 10719 10720 10722 10723 10724 10726 10728 10728 10729 10733 10735 10736 10738 10739 10741 10742 10744 10747 10748 10750 10751 10754 10756 10757 10759 10761
10710 10711 10711 10712 10715 10720 10720 10717 10714 10714 10715 10715 10713 10711 10712 10713 10715 10717 10718 10718 10719 10720 10720 10719 10716 10715 10715 10715 10717 10718 10716 10715 10714 10714 10716 10716 10713 10711 10711 10713 10716 10716 10716 10717 10717 10717 10718 10720 10721 10719 10716 10714 10713 10713 10714 10713 10713 10714 10715 10715 10716 10717 10719 10720 10722 10724 10724 10726 10729 10732 10733 10735 10737 10738 10739 10742 10743 10745 10747 10748 10750 10751 10753 10755 10757
10702 10703 10704 10705 10708 10711 10712 10710 10706 10705 10705 10705 10704 10704 10704 10706 10708 10710 10712 10712 10713 10712 10712 10712 10710 10709 10708 10708 10710 10712 10711 10708 10708 10708 10711 10712 10708 10706 10707 10709 10711 10711 10712 10712 10712 10713 10714 10716 10716 10714 10712 10710 10708 10707 10708 10709 10709 10710 10711 10711 10712 10713 10714 10716 10718 10720 10721 10723 10726 10729 10731 10733 10734 10735 10736 10738 10740 10742 10744 10745 10746 10748 10750 10752 10753
10696 10697 10697 10698 10700 10702 10702 10702 10700 10699 10699 10698 10697 10698 10698 10699 10701 10702 10703 10704 10706 10706 10706 10706 10704 10703 10702 10702 10704 10705 10705 10704 10702 10703 10705 10706 10704 10702 10703 10705 10705 10706 10707 10708 10708 10707 10708 10710 10712 10710 10707 10705 10703 10702 10702 10704 10705 10706 10707 10707 10708 10709 10710 10712 10714 10716 10717 10719 10722 10725 10728 10730 10731 10732 10733 10735 10737 10739 10740 10742 10743 10745 10747 10748 10750
10689 10689 10689 10689 10690 10691 10691 10691 10691 10692 10694 10693 10693 10692 10693 10694 10695 10696 10695 10696 10698 10697 10698 10698 10695 10695 10696 10697 10698 10696 10696 10697 10697 10697 10699 10700 10700 10700 10699 10700 10700 10701 10704 10704 10703 10701 10702 10704 10705 10704 10701 10700 10699 10699 10698 10699 10700 10702 10703 10704 10704 10705 10706 10707 10709 10712 10714 10715 10717 10720 10723 10727 10729 10730 10730 10731 10733 10735 10737 10739 10740 10741 10743 10745 10747
10681 10680 10680 10680 10681 10680 10681 10681 10681 10683 10684 10686 10686 10687 10687 10688 10688 10689 10690 10691 10691 10690 10691 10691 10688 10687 10688 10691 10692 10690 10688 10689 10690 10691 10693 10694 10696 10697 10696 10696 10696 10697 10699 10699 10696 10695 10696 10696 10697 10697 10696 10698 10696 10695 10696 10695 10697 10698 10699 10700 10701 10702 10703 10704 10706 10708 10710 10712 10713 10716 10719 10723 10726 10727 10727 10728 10729 10731 10733 10735 10737 10738 10740 10742 10744
10673 10671 10671 10672 10673 10673 10673 10673 10673 10672 10672 10674 10675 10677 10679 10680 10681 10681 10683 10684 10685 10684 10683 10683 10681 10679 10680 10682 10684 10683 10682 10683 10684 10685 10686 10687 10689 10691 10692 10691 10691 10691 10692 10690 10687 10688 10687 10685 10689 10692 10691 10693 10693 10692 10693 10692 10693 10695 10696 10697 10698 10698 10699 10700 10703 10705 10707 10709 10710 10712 10715 10719 10722 10723 10724 10725 10725 10727 10729 10731 10733 10735 10737 10739 10741
10664 10664 10665 10665 10666 10666 10667 10665 10663 10662 10662 10663 10664 10666 10669 10671 10673 10674 10674 10675 10677 10676 10673 10673 10673 10671 10671 10673 10674 10675 10675 10676 10678 10681 10680 10681 10684 10687 10688 10685 10684 10684 10684 10682 10681 10682 10680 10679 10683 10685 10685 10687 10689 10689 10689 10689 10690 10692 10692 10693 10694 10695 10696 10697 10700 10702 10704 10705 10707 10709 10712 10716 10719 10720 10721 10722 10722 10723 10725 10728 10730 10732 10734 10735 10737
10658 10658 10659 10661 10661 10661 10660 10657 10656 10655 10655 10655 10656 10657 10658 10660 10662 10665 10666 10666 10669 10670 10667 10666 10665 10663 10663 10664 10665 10666 10667 10668 10672 10676 10675 10676 10680 10685 10686 10681 10677 10677 10678 10677 10677 10678 10678 10677 10679 10679 10680 10683 10685 10685 10685 10685 10687 10688 10689 10690 10691 10692 10693 10695 10697 10699 10700 10701 10703 10705 10709 10713 10716 10717 10718 10718 10719 10720 10722 10724 10726 10728 10730 10731 10733
10652 10654 10655 10656 10656 10655 10653 10651 10650 10648 10648 10648 10648 10649 10649 10651 10652 10655 10657 10657 10660 10662 10662 10662 10659 10658 10657 10658 10660 10660 10660 10663 10668 10672 10673 10672 10675 10680 10681 10677 10672 10671 10672 10672 10673 10674 10674 10673 10674 10675 10676 10679 10681 10682 10683 10683 10684 10685 10686 10687 10687 10688 10690 10692 10694 10696 10698 10699 10699 10701 10704 10708 10711 10713 10715 10715 10716 10717 10718 10720 10722 10724 10726 10727 10728
10647 10649 10650 10649 10649 10648 10646 10645 10643 10642 10642 10641 10641 10642 10642 10643 10644 10646 10647 10648 10650 10652 10654 10654 10653 10652 10652 10652 10654 10654 10654 10657 10661 10666 10669 10668 10669 10673 10674 10671 10670 10668 10665 10664 10667 10669 10671 10671 10670 10670 10672 10676 10679 10680 10680 10680 10680 10681 10682 10683 10684 10685 10686 10688 10690 10692 10694 10695 10696 10697 10700 10704 10708 10710 10712 10713 10714 10715 10716 10717 10719 10720 10722 10723 10724
10642 10643 10643 10643 10641 10640 10639 10638 10637 10636 10636 10636 10636 10636 10636 10637 10637 10638 10640 10640 10641 10642 10644 10645 10645 10645 10645 10646 10646 10646 10647 10648 10651 10655 10659 10659 10660 10664 10664 10664 10665 10663 10659 10658 10661 10664 10669 10669 10667 10666 10669 10673 10676 10676 10676 10676 10677 10678 10678 10679 10680 10682 10683 10685 10687 10689 10690 10692 10694 10695 10697 10700 10704 10707 10709 10710 10711 10712 10713 10714 10716 10717 10718 10719 10720
10636 10637 10637 10636 10635 10634 10633 10632 10632 10631 10631 10631 10631 10630 10630 10630 10630 10632 10632 10633 10633 10634 10636 10636 10636 10637 10639 10639 10639 10639 10639 10640 10642 10643 10646 10648 10651 10654 10655 10654 10655 10654 10653 10654 10656 10659 10663 10665 10664 10664 10665 10669 10672 10672 10672 10672 10672 10674 10673 10674 10676 10678 10680 10681 10683 10685 10687 10689 10691 10692 10693 10695 10698 10701 10704 10706 10708 10709 10710 10711 10712 10713 10715 10715 10716
10630 10631 10631 10630 10629 10629 10628 10627 10627 10627 10627 10626 10626 10625 10625 10625 10625 10626 10626 10626 10627 10627 10628 10629 10629 10630 10631 10632 10632 10632 10633 10634 10635 10635 10637 10640 10643 10646 10646 10647 10648 10648 10649 10649 10651 10653 10657 10660 10660 10661 10662 10665 10668 10669 10669 10669 10669 10669 10669 10669 10672 10674 10675 10676 10679 10681 10683 10685 10687 10689 10691 10692 10694 10696 10698 10701 10704 10706 10707 10708 10709 10710 10710 10711 10712
10626 10627 10626 10625 10625 10624 10623 10622 10622 10623 10622 10622 10622 10621 10620 10620 10620 10620 10620 10621 10621 10622 10622 10622 10623 10624 10624 10625 10626 10626 10627 10628 10629 10629 10631 10633 10635 10638 10639 10641 10642 10642 10643 10644 10646 10648 10652 10655 10656 10657 10658 10661 10664 10665 10665 10665 10666 10667 10666 10667 10668 10669 10671 10672 10674 10676 10678 10681 10683 10685 10687 10689 10691 10692 10694 10696 10699 10701 10703 10704 10706 10706 10707 10707 10708
10623 10622 10622 10621 10621 10620 10618 10618 10618 10619 10618 10618 10618 10617 10616 10615 10615 10615 10616 10616 10616 10616 10617 10617 10618 10618 10619 10619 10620 10621 10621 10622 10623 10624 10625 10626 10629 10631 10633 10635 10636 10637 10638 10640 10642 10644 10646 10649 10650 10652 10655 10657 10660 10661 10661 10661 10662 10664 10665 10665 10665 10666 10667 10667 10668 10671 10674 10676 10678 10680 10683 10685 10687 10689 10691 10693 10695 10697 10699 10700 10702 10703 10703 10704 10705
10619 10618 10618 10618 10618 10617 10614 10613 10614 10615 10615 10615 10614 10614 10613 10612 10611 10611 10611 10611 10611 10612 10612 10613 10613 10614 10614 10614 10615 10615 10616 10617 10618 10619 10620 10621 10624 10626 10628 10630 10630 10631 10633 10635 10637 10639 10641 10643 10646 10648 10650 10653 10655 10656 10656 10657 10659 10660 10662 10662 10663 10664 10663 10663 10665 10667 10669 10671 10673 10675 10678 10681 10683 10686 10687 10689 10691 10693 10695 10696 10698 10700 10700 10701 10702
10614 10614 10614 10615 10614 10613 10611 10609 10610 10611 10611 10611 10611 10610 10610 10609 10608 10608 10607 10607 10607 10607 10608 10608 10609 10609 10609 10610 10610 10611 10611 10612 10613 10614 10616 10617 10619 10621 10623 10625 10625 10626 10628 10630 10631 10634 10636 10638 10641 10643 10645 10648 10649 10650 10652 10654 10655 10657 10658 10658 10660 10661 10660 10661 10663 10664 10666 10667 10668 10671 10674 10677 10680 10682 10684 10686 10687 10689 10690 10692 10694 10696 10697 10698 10699
10610 10610 10610 10611 10610 10610 10608 10605 10606 10607 10608 10608 10608 10608 10607 10606 10605 10605 10604 10604 10604 10604 10604 10604 10605 10605 10605 10606 10606 10606 10607 10607 10608 10610 10611 10613 10614 10616 10618 10620 10621 10622 10623 10625 10626 10629 10631 10633 10635 10638 10641 10642 10644 10646 10648 10650 10652 10652 10653 10654 10655 10656 10657 10657 10659 10661 10662 10663 10665 10667 10670 10673 10675 10678 10680 10682 10683 10685 10686 10688 10690 10692 10693 10695 10696
10605 10605 10605 10606 10606 10606 10605 10602 10601 10603 10604 10604 10605 10604 10604 10603 10603 10603 10602 10601 10601 10601 10601 10601 10601 10601 10602 10602 10602 10603 10603 10603 10604 10605 10607 10608 10610 10612 10613 10615 10617 10618 10619 10620 10622 10624 10626 10628 10630 10633 10635 10637 10640 10642 10643 10645 10647 10648 10649 10650 10651 10652 10652 10653 10655 10657 10658 10659 10661 10663 10666 10669 10671 10673 10676 10677 10678 10680 10682 10684 10687 10689 10690 10692 10693
10599 10599 10599 10601 10602 10602 10602 10600 10598 10597 10599 10600 10601 10601 10601 10600 10600 10600 10599 10599 10598 10598 10598 10598 10598 10598 10599 10599 10599 10600 10600 10600 10601 10602 10603 10604 10606 10608 10609 10611 10613 10614 10615 10616 10617 10619 10621 10623 10625 10628 10630 10633 10635 10637 10639 10640 10642 10644 10645 10646 10646 10647 10648 10650 10651 10653 10654 10655 10657 10659 10662 10664 10666 10668 10671 10672 10673 10676 10678 10680 10683 10685 10686 10688 10689
10593 10593 10594 10595 10596 10597 10598 10597 10594 10593 10594 10596 10596 10597 10597 10597 10596 10596 10596 10596 10596 10595 10595 10595 10595 10595 10596 10596 10596 10597 10597 10597 10598 10599 10600 10601 10602 10604 10606 10607 10609 10610 10611 10612 10613 10615 10616 10618 10620 10622 10625 10627 10630 10632 10634 10636 10638 10639 10640 10642 10643 10643 10645 10646 10647 10648 10650 10652 10653 10655 10657 10659 10662 10664 10666 10667 10668 10670 10673 10675 10678 10680 10682 10683 10685
10588 10587 10588 10589 10590 10592 10592 10592 10591 10588 10589 10591 10591 10591 10593 10593 10593 10593 10593 10593 10593 10593 10592 10592 10592 10592 10593 10593 10594 10594 10594 10595 10595 10596 10597 10598 10599 10601 10602 10604 10605 10606 10607 10608 10610 10611 10612 10614 10615 10617 10619 10622 10625 10626 10628 10631 10633 10635 10636 10638 10639 10640 10642 10642 10642 10644 10646 10648 10649 10651 10653 10655 10657 10659 10661 10662 10664 10666 10667 10669 10672 10675 10677 10678 10680
10581 10581 10582 10583 10585 10587 10587 10587 10587 10584 10583 10585 10586 10586 10588 10588 10588 10589 10589 10589 10589 10589 10590 10589 10589 10590 10590 10590 10591 10591 10592 10592 10592 10593 10594 10595 10596 10597 10599 10600 10602 10603 10604 10605 10606 10607 10608 10610 10611 10613 10614 10616 10619 10621 10623 10625 10627 10629 10631 10633 10634 10635 10638 10638 10638 10640 10642 10644 10645 10646 10648 10651 10653 10654 10656 10658 10660 10661 10663 10665 10667 10669 10671 10673 10675
10575 10576 10577 10578 10579 10581 10581 10581 10582 10580 10578 10579 10580 10581 10582 10583 10583 10584 10584 10584 10585 10585 10586 10586 10587 10587 10587 10588 10588 10588 10588 10589 10589 10590 10591 10592 10593 10594 10596 10597 10598 10599 10600 10602 10602 10604 10605 10606 10607 10609 10610 10611 10613 10615 10617 10619 10621 10623 10626 10628 10629 10631 10633 10634 10634 10636 10638 10639 10640 10642 10643 10646 10648 10650 10652 10654 10656 10657 10660 10661 10662 10664 10666 10668 10670